Regional Weather Roundup
Issued by NWS Northern Indiana

Home | Current Version | Previous Version | Graphics & Text | Print | Product List | Glossary On
Versions: 1 2 3 4 5 6 7 8 9 10 11 12 13 14 15 16 17 18 19 20 21 22 23 24 25 26 27 28 29 30 31 32 33 34 35 36 37 38 39 40 41 42 43 44 45 46 47 48 49 50
000
ASUS43 KIWX 211300
RWRIWX

KIWX WEATHER ROUNDUP
NATIONAL WEATHER SERVICE NORTHERN INDIANA
900 AM EDT SUN SEP 21 2014

NOTE: "FAIR" INDICATES FEW OR NO CLOUDS BELOW 12,000 FEET WITH NO
SIGNIFICANT WEATHER AND/OR OBSTRUCTIONS TO VISIBILITY.

* THESE STATIONS ARE NOT UNDER NWS QUALITY CONTROL. THEY ALSO MAY NOT
  REPORT WEATHER SUCH AS PRECIPITATION OR FOG.

INZ001>027-211400-
NORTHERN INDIANA

CITY           SKY/WX    TMP DP  RH WIND       PRES   REMARKS
GARY*          MOSUNNY   61  52  72 W14       29.82S
VALPARAISO     SUNNY     58  53  84 W14       29.82S
KNOX*          SUNNY     58  53  83 W13G20    29.81R
SOUTH BEND     SUNNY     61  52  72 W15       29.79R
ELKHART*       MOSUNNY   59  52  77 W14       29.78R
GOSHEN         MOSUNNY  N/A N/A N/A W14G22    29.78R
WARSAW*        SUNNY     61  55  82 W14       29.80R
ANGOLA*        MOSUNNY   63  52  67 W10       29.75R
FORT WAYNE     MOSUNNY   62  57  83 W16G25    29.80R
PERU/GRISSOM   SUNNY     61  61  99 W13       29.85R

$$
INZ028>050-211400-
CENTRAL INDIANA

CITY           SKY/WX    TMP DP  RH WIND       PRES   REMARKS
LAFAYETTE      SUNNY     59  56  89 W9        29.88R
KOKOMO*        SUNNY     61  55  82 W15G22    29.85R
MUNCIE*        PTSUNNY   66  61  84 NW14      29.84R
INDIANAPOLIS   MOSUNNY   65  57  75 NW24      29.88R

$$
MIZ043>046-050>051-056>058-064>065-071>073-077>080-211400-
SOUTHWEST LOWER MICHIGAN

CITY           SKY/WX    TMP DP  RH WIND       PRES   REMARKS
BATTLE CREEK   PTSUNNY   60  54  80 W23G30    29.71S
BENTON HARBOR  MOSUNNY   60  50  69 W20G31    29.76S
COLDWATER*     PTSUNNY   63  56  77 W17G24    29.73R
HILLSDALE*     PTSUNNY   62  59  88 W12G21    29.72R
HOLLAND        CLOUDY    61  52  72 W20G31    29.71R
GRAND RAPIDS   PTSUNNY   60  55  83 W20G26    29.68S
KALAMAZOO      PTSUNNY   60  53  77 W14       29.73R
STURGIS*       PTSUNNY   61  54  77 W14G20    29.75R
THREE RIVERS*  FAIR      61  53  76 W14G20    29.75R

$$
OHZ001>008-015>018-024>025-211400-
NORTHWEST OHIO

CITY           SKY/WX    TMP DP  RH WIND       PRES   REMARKS
DEFIANCE       SUNNY    N/A N/A N/A W10G18    29.75R
FINDLAY        PTSUNNY   67  59  75 W20G29    29.74R
TOLEDO EXPRESS SUNNY     65  59  81 W17       29.71R
TOLEDO METCALF SUNNY     67  59  75 W16G23    29.71R
LIMA           PTSUNNY   70  64  81 W17G24    29.77R

$$
AND FOR LAKE MICHIGAN COASTAL AND OPEN LAKE BUOY OBSERVATIONS

STATION/POSITION TEMP    WIND        PRES    VSBY  WAVE
                 AIR SEA DIR/SP/G                  HT/PER
                 (F)     (DEG/KT/KT) (MB)    (MI)  (FT/S)
CALUMET HARBOR    60     250/  7/ 13 1008.4R
MICHIGAN CITY     62     240/ 25/ 30   N/A
SAINT JOSEPH      62     250/ 20     1009.1R
SOUTH LAKE BUOY   60 63  260/ 23/ 27 1006.2R         5/ 5
4 MI NW BRIDGMAN  62 65  270/ 21/ 29   N/A           8/ 6
MICHIGAN CITY     62 65  280/ 19/ 25   N/A           6/ 5
SAINT JOSEPH CG                      1007.0      6   4

$$
&&



USA.gov is the U.S. government's official web portal to all federal, state and local government web resources and services.